STARLINK-32143, 60296

Orbit data source: Space-Track

STARLINK-32143, 60296 is a payload satellite owned by SpaceX/Seattle (US) in LEO that was launched on Sun, 28 Jul 2024 UTC via an FALCON 9 launch vehicle from the Air Force Eastern Test Range (AFETR). Payload-class satellites include a variety of spacecraft equipped with specific instruments for various scientific and technological missions. These include communications satellites like Starlink; space stations such as the ISS; scientific satellites like the Hubble; Earth observation satellites from companies like Planet Labs, Umbra, and HawkEye 360; GPS; miniature CubeSats for education and research; and military/defense satellites.

Loading next visibility...
Identifier
60296, 2024-132U
Orbit
LEO
Country
Flag of USUS
Related business
Manufacturer
SpaceX/Seattle
Mission
Operational Commercial Communications
Bus & Motor
STARLINK V2M, Unknown motor
Mass
730 kg wet, ~700 kg dry
Launch date (UTC)
2024-07-28 (1 year ago)
Launch vehicle
FALCON 9
Launch site
Air Force Eastern Test Range (AFETR)
Object type
Payload
Rocket body
Debris
Shape & HBR
Box + 2 Pan, 17.7 m
Radar Cross Section
33.884 m², Large (>1 m²)

Expand to show TLE details & history
Last TLE update: 17 hours ago

TLE from 17 hours ago
0 STARLINK-32143
1 60296U 24132U   25286.51283375 -.00041761  00000-0 -13974-2 0  9999
2 60296  53.1629  16.2893 0000589 347.8161  12.2825 15.30391740 69022
Epoch: 2025-10-13T12:18Z
TLE epoch observation values (Epoch: 2025-10-13T12:18:28.835Z)
Latitude
-0.00009°
Longitude
169.35454°
Altitude
475.148 km
Speed
7.63 km/s
True Right ascension
01h 05m 09s
True Declination
0° 00' 00"
Sunlit
Object was in full shadow at epoch
Visualization orbit readout
Latitude
Unknown
Longitude
Unknown
Altitude
Unknown
Speed
Unknown
Apparent Right ascension
Unknown
Apparent Declination
Unknown
Sunlit
N/A
Visualization observer readout
Local Sidereal Time
23:39:56
Azimuth
Unknown
Elevation
Unknown
Doppler factor
Unknown
Orbital elements
Apogee altitude
475.302 km
Perigee altitude
474.495 km
Semi-major axis
6,853.036 km
Eccentricity
0.00006
Inclination
53.1629°
RAAN
16.2893°
Arg. of periapsis
347.8161°
True anomaly
12.28394°
Mean anomaly
12.2825°
Eccentric anomaly
12.28322°
Mean motion
3.82577 °/min
Orbital period
94.1 mins
BSTAR
-0.0013974
Loading maneuver chart data...
Computing Atmospheric mass density...
Loading historical data...
Loading historical data...
Loading historical data...
Loading historical data...
Loading historical data...
Loading historical data...
Loading historical data...

Documentation

Showing up to 5 results
|